"Data set title: Gaging station water sample data. Usage: Event based table used with water chemistry collection from 01-Oct-2017 to 30-Sep-2018",,,,,,,,,,,,
,,,,,,,,,,,,,
"Site","Date","RecNum","SiteID","Flag_SiteID","LOGGERID","PROGID","VNOTCH_INST_0_0_01","Flag_VNOTCH_INST_0_0_01","SAMPLE_INST_0_0_01","Flag_SAMPLE_INST_0_0_01","STAGE_INST_0_0_01","Flag_STAGE_INST_0_0_01"
"","yyyy-MM-dd HH:mm:ss","count","","none","none","none","number","none","count","none","ft","none"
"nominal","datetime","nominal","data","code","nominal","nominal","data","code","data","code","data","code"
"GSWS01_115",2017-10-01 10:16:00,17,101.00,"",115,22599.0,0,"",18,"",0.0290,""
"GSWS01_115",2017-10-01 23:34:00,18,101.00,"",115,22599.0,0,"",19,"",0.0290,""
"GSWS01_115",2017-10-02 12:52:00,19,101.00,"",115,22599.0,0,"",20,"",0.0280,""
"GSWS01_115",2017-10-03 02:10:00,20,101.00,"",115,22599.0,0,"",21,"",0.0260,""
"GSWS01_115",2017-10-03 15:28:00,21,101.00,"",115,22599.0,0,"",22,"",0.0270,""
"GSWS01_115",2017-10-04 04:46:00,22,101.00,"",115,22599.0,0,"",23,"",0.0260,""
"GSWS01_115",2017-10-04 18:04:00,23,101.00,"",115,22599.0,0,"",24,"",0.0260,""
"GSWS01_115",2017-10-05 07:22:00,24,101.00,"",115,22599.0,0,"",25,"",0.0260,""
"GSWS01_115",2017-10-05 20:40:00,25,101.00,"",115,22599.0,0,"",26,"",0.0260,""
"GSWS01_115",2017-10-06 09:58:00,26,101.00,"",115,22599.0,0,"",27,"",0.0260,""
"GSWS01_115",2017-10-06 23:16:00,27,101.00,"",115,22599.0,0,"",28,"",0.0260,""
"GSWS01_115",2017-10-07 12:34:00,28,101.00,"",115,22599.0,0,"",29,"",0.0260,""
"GSWS01_115",2017-10-08 01:52:00,29,101.00,"",115,22599.0,0,"",30,"",0.0280,""
"GSWS01_115",2017-10-08 15:10:00,30,101.00,"",115,22599.0,0,"",31,"",0.0310,""
"GSWS01_115",2017-10-09 04:28:00,31,101.00,"",115,22599.0,0,"",32,"",0.0290,""
"GSWS01_115",2017-10-09 17:46:00,32,101.00,"",115,22599.0,0,"",33,"",0.0280,""
"GSWS01_115",2017-10-10 07:04:00,33,101.00,"",115,22599.0,0,"",34,"",0.0270,""
"GSWS01_115",2017-10-10 20:22:00,34,101.00,"",115,22599.0,0,"",35,"",0.0260,""
"GSWS01_115",2017-10-11 09:40:00,35,101.00,"",115,22599.0,0,"",36,"",0.0340,""
"GSWS01_115",2017-10-11 14:36:15,36,101.00,"",115,22599.0,0,"",37,"",0.0530,""
"GSWS01_115",2017-10-11 22:58:00,37,101.00,"",115,22599.0,0,"",1,"",0.0470,""
"GSWS01_115",2017-10-12 12:16:00,38,101.00,"",115,22599.0,0,"",2,"",0.1160,""
"GSWS01_115",2017-10-13 01:34:00,39,101.00,"",115,22599.0,0,"",3,"",0.2630,""
"GSWS01_115",2017-10-13 14:52:00,40,101.00,"",115,22599.0,0,"",4,"",0.2360,""
"GSWS01_115",2017-10-14 04:10:00,41,101.00,"",115,22599.0,0,"",5,"",0.1560,""
"GSWS01_115",2017-10-14 17:28:00,42,101.00,"",115,22599.0,0,"",6,"",0.1130,""
"GSWS01_115",2017-10-15 06:46:00,43,101.00,"",115,22599.0,0,"",7,"",0.0930,""
"GSWS01_115",2017-10-15 20:04:00,44,101.00,"",115,22599.0,0,"",8,"",0.0770,""
"GSWS01_115",2017-10-16 09:22:00,45,101.00,"",115,22599.0,0,"",9,"",0.0670,""
"GSWS01_115",2017-10-16 22:40:00,46,101.00,"",115,22599.0,0,"",10,"",0.0600,""
"GSWS01_115",2017-10-17 11:58:00,47,101.00,"",115,22599.0,0,"",11,"",0.0550,""
"GSWS01_115",2017-10-18 01:16:00,48,101.00,"",115,22599.0,0,"",12,"",0.0500,""
"GSWS01_115",2017-10-18 14:34:00,49,101.00,"",115,22599.0,0,"",13,"",0.0490,""
"GSWS01_115",2017-10-19 03:52:00,50,101.00,"",115,22599.0,0,"",14,"",0.0450,""
"GSWS01_115",2017-10-19 17:10:00,51,101.00,"",115,22599.0,0,"",15,"",0.0930,""
"GSWS01_115",2017-10-20 06:28:00,52,101.00,"",115,22599.0,0,"",16,"",0.2520,""
"GSWS01_115",2017-10-20 19:46:00,53,101.00,"",115,22599.0,0,"",17,"",0.2280,""
"GSWS01_115",2017-10-21 07:33:45,54,101.00,"",115,22599.0,0,"",18,"",0.3580,""
"GSWS01_115",2017-10-21 11:59:45,55,101.00,"",115,22599.0,0,"",19,"",0.6130,""
"GSWS01_115",2017-10-21 15:21:45,56,101.00,"",115,22599.0,0,"",20,"",0.7670,""
"GSWS01_115",2017-10-21 19:47:45,57,101.00,"",115,22599.0,0,"",21,"",0.6260,""
"GSWS01_115",2017-10-22 02:25:45,58,101.00,"",115,22599.0,0,"",22,"",0.4750,""
"GSWS01_115",2017-10-22 05:47:45,59,101.00,"",115,22599.0,0,"",23,"",0.7720,""
"GSWS01_115",2017-10-22 08:16:45,60,101.00,"",115,22599.0,0,"",24,"",0.9250,""
"GSWS01_115",2017-10-22 10:59:30,61,101.00,"",115,22599.0,0,"",25,"",0.8990,""
"GSWS01_115",2017-10-22 10:59:45,62,101.00,"",115,22599.0,0,"",26,"",0.8990,""
"GSWS01_115",2017-10-22 14:20:30,63,101.00,"",115,22599.0,0,"",27,"",0.7530,""
"GSWS01_115",2017-10-22 20:58:30,64,101.00,"",115,22599.0,0,"",28,"",0.4910,""
"GSWS01_115",2017-10-23 03:36:30,65,101.00,"",115,22599.0,0,"",29,"",0.3700,""
"GSWS01_115",2017-10-23 16:54:30,66,101.00,"",115,22599.0,0,"",30,"",0.2470,""
"GSWS01_115",2017-10-24 06:12:30,67,101.00,"",115,22599.0,0,"",31,"",0.1930,""
"GSWS01_115",2017-10-24 19:30:30,68,101.00,"",115,22599.0,0,"",32,"",0.1630,""
"GSWS01_115",2017-10-25 08:48:30,69,101.00,"",115,22599.0,0,"",33,"",0.1410,""
"GSWS01_115",2017-10-25 22:06:30,70,101.00,"",115,22599.0,0,"",34,"",0.1260,""
"GSWS01_115",2017-10-26 09:57:45,71,101.00,"",115,22599.0,0,"",35,"",0.1150,""
"GSWS01_115",2017-10-26 11:24:30,72,101.00,"",115,22599.0,0,"",36,"",0.1150,""
"GSWS01_115",2017-10-27 00:42:30,73,101.00,"",115,22599.0,0,"",37,"",0.1090,""
"GSWS01_115",2017-10-27 14:00:30,74,101.00,"",115,22599.0,0,"",38,"",0.1030,""
"GSWS01_115",2017-10-28 03:18:30,75,101.00,"",115,22599.0,0,"",39,"",0.0980,""
"GSWS01_115",2017-10-28 16:36:30,76,101.00,"",115,22599.0,0,"",40,"",0.0950,""
"GSWS01_115",2017-10-29 05:54:30,77,101.00,"",115,22599.0,0,"",41,"",0.0890,""
"GSWS01_115",2017-10-29 19:12:30,78,101.00,"",115,22599.0,0,"",42,"",0.0830,""
"GSWS01_115",2017-10-30 08:30:30,79,101.00,"",115,22599.0,0,"",43,"",0.0790,""
"GSWS01_115",2017-10-30 21:48:30,80,101.00,"",115,22599.0,0,"",44,"",0.0760,""
"GSWS01_115",2017-10-31 11:06:30,81,101.00,"",115,22599.0,0,"",45,"",0.0740,""
"GSWS01_115",2017-10-31 16:58:00,82,101.00,"",115,22599.0,0,"",46,"",0.0730,""
"GSWS01_115",2017-11-01 00:24:30,83,101.00,"",115,22599.0,0,"",1,"",0.0710,""
"GSWS01_115",2017-11-01 13:42:30,84,101.00,"",115,22599.0,0,"",2,"",0.0690,""
"GSWS01_115",2017-11-02 03:00:30,85,101.00,"",115,22599.0,0,"",3,"",0.0670,""
"GSWS01_115",2017-11-02 16:18:30,86,101.00,"",115,22599.0,0,"",4,"",0.0810,""
"GSWS01_115",2017-11-03 05:36:30,87,101.00,"",115,22599.0,0,"",5,"",0.1280,""
"GSWS01_115",2017-11-03 18:54:30,88,101.00,"",115,22599.0,0,"",6,"",0.1280,""
"GSWS01_115",2017-11-04 08:12:30,89,101.00,"",115,22599.0,0,"",7,"",0.1150,""
"GSWS01_115",2017-11-04 21:30:30,90,101.00,"",115,22599.0,0,"",8,"",0.1090,""
"GSWS01_115",2017-11-05 10:48:30,91,101.00,"",115,22599.0,0,"",9,"",0.1920,""
"GSWS01_115",2017-11-06 00:06:30,92,101.00,"",115,22599.0,0,"",10,"",0.2720,""
"GSWS01_115",2017-11-06 13:24:30,93,101.00,"",115,22599.0,0,"",11,"",0.2400,""
"GSWS01_115",2017-11-07 02:42:30,94,101.00,"",115,22599.0,0,"",12,"",0.2010,""
"GSWS01_115",2017-11-07 16:00:30,95,101.00,"",115,22599.0,0,"",13,"",0.1770,""
"GSWS01_115",2017-11-08 05:18:30,96,101.00,"",115,22599.0,0,"",14,"",0.1580,""
"GSWS01_115",2017-11-08 18:36:30,97,101.00,"",115,22599.0,0,"",15,"",0.1440,""
"GSWS01_115",2017-11-09 07:54:30,98,101.00,"",115,22599.0,0,"",16,"",0.1700,""
"GSWS01_115",2017-11-09 21:12:30,99,101.00,"",115,22599.0,0,"",17,"",0.1850,""
"GSWS01_115",2017-11-10 10:30:30,100,101.00,"",115,22599.0,0,"",18,"",0.2400,""
"GSWS01_115",2017-11-10 23:48:30,101,101.00,"",115,22599.0,0,"",19,"",0.3400,""
"GSWS01_115",2017-11-11 13:06:30,102,101.00,"",115,22599.0,0,"",20,"",0.3020,""
"GSWS01_115",2017-11-12 02:24:30,103,101.00,"",115,22599.0,0,"",21,"",0.2480,""
"GSWS01_115",2017-11-12 15:42:30,104,101.00,"",115,22599.0,0,"",22,"",0.2100,""
"GSWS01_115",2017-11-13 05:00:30,105,101.00,"",115,22599.0,0,"",23,"",0.2190,""
"GSWS01_115",2017-11-13 18:18:30,106,101.00,"",115,22599.0,0,"",24,"",0.2740,""
"GSWS01_115",2017-11-14 07:36:30,107,101.00,"",115,22599.0,0,"",25,"",0.2690,""
"GSWS01_115",2017-11-14 20:54:30,108,101.00,"",115,22599.0,0,"",26,"",0.2450,""
"GSWS01_115",2017-11-15 10:12:30,109,101.00,"",115,22599.0,0,"",27,"",0.2180,""
"GSWS01_115",2017-11-15 23:30:30,110,101.00,"",115,22599.0,0,"",28,"",0.2680,""
"GSWS01_115",2017-11-16 12:48:30,111,101.00,"",115,22599.0,0,"",29,"",0.3540,""
"GSWS01_115",2017-11-16 19:26:30,112,101.00,"",115,22599.0,0,"",30,"",0.3610,""
"GSWS01_115",2017-11-17 02:04:30,113,101.00,"",115,22599.0,0,"",31,"",0.3670,""
"GSWS01_115",2017-11-17 08:42:30,114,101.00,"",115,22599.0,0,"",32,"",0.3830,""
"GSWS01_115",2017-11-17 15:20:30,115,101.00,"",115,22599.0,0,"",33,"",0.3870,""
"GSWS01_115",2017-11-17 21:58:30,116,101.00,"",115,22599.0,0,"",34,"",0.3650,""
"GSWS01_115",2017-11-18 11:16:30,117,101.00,"",115,22599.0,0,"",35,"",0.3060,""
"GSWS01_115",2017-11-19 00:34:30,118,101.00,"",115,22599.0,0,"",36,"",0.2570,""
"GSWS01_115",2017-11-19 13:52:30,119,101.00,"",115,22599.0,0,"",37,"",0.2240,""
"GSWS01_115",2017-11-20 03:10:30,120,101.00,"",115,22599.0,0,"",38,"",0.2660,""
"GSWS01_115",2017-11-20 08:48:30,121,101.00,"",115,22599.0,0,"",39,"",0.5570,""
"GSWS01_115",2017-11-20 13:14:30,122,101.00,"",115,22599.0,0,"",40,"",0.6890,""
"GSWS01_115",2017-11-20 15:50:00,123,101.00,"",115,22599.0,0,"",41,"",0.6710,""
"GSWS01_115",2017-11-20 17:40:30,124,101.00,"",115,22599.0,0,"",1,"",0.6310,""
"GSWS01_115",2017-11-21 00:18:30,125,101.00,"",115,22599.0,0,"",2,"",0.5330,""
"GSWS01_115",2017-11-21 06:56:30,126,101.00,"",115,22599.0,0,"",3,"",0.5070,""
"GSWS01_115",2017-11-21 13:34:30,127,101.00,"",115,22599.0,0,"",4,"",0.4790,""
"GSWS01_115",2017-11-21 20:12:30,128,101.00,"",115,22599.0,0,"",5,"",0.4390,""
"GSWS01_115",2017-11-22 02:50:30,129,101.00,"",115,22599.0,0,"",6,"",0.4000,""
"GSWS01_115",2017-11-22 09:28:30,130,101.00,"",115,22599.0,0,"",7,"",0.3640,""
"GSWS01_115",2017-11-22 22:46:30,131,101.00,"",115,22599.0,0,"",8,"",0.3120,""
"GSWS01_115",2017-11-23 05:28:00,132,101.00,"",115,22599.0,0,"",9,"",0.3580,""
"GSWS01_115",2017-11-23 10:22:30,133,101.00,"",115,22599.0,0,"",10,"",0.5570,""
"GSWS01_115",2017-11-23 13:44:30,134,101.00,"",115,22599.0,0,"",11,"",0.7620,""
"GSWS01_115",2017-11-23 20:28:30,135,101.00,"",115,22599.0,0,"",12,"",0.7490,""
"GSWS01_115",2017-11-24 00:54:30,136,101.00,"",115,22599.0,0,"",13,"",0.6420,""
"GSWS01_115",2017-11-24 07:32:30,137,101.00,"",115,22599.0,0,"",14,"",0.5170,""
"GSWS01_115",2017-11-24 14:10:30,138,101.00,"",115,22599.0,0,"",15,"",0.4510,""
"GSWS01_115",2017-11-24 20:48:30,139,101.00,"",115,22599.0,0,"",16,"",0.3970,""
"GSWS01_115",2017-11-25 10:06:30,140,101.00,"",115,22599.0,0,"",17,"",0.3260,""
"GSWS01_115",2017-11-25 23:24:30,141,101.00,"",115,22599.0,0,"",18,"",0.2780,""
"GSWS01_115",2017-11-26 12:42:30,142,101.00,"",115,22599.0,0,"",19,"",0.2590,""
"GSWS01_115",2017-11-27 02:00:30,143,101.00,"",115,22599.0,0,"",20,"",0.3060,""
"GSWS01_115",2017-11-27 15:18:30,144,101.00,"",115,22599.0,0,"",21,"",0.2760,""
"GSWS01_115",2017-11-28 04:36:30,145,101.00,"",115,22599.0,0,"",22,"",0.2530,""
"GSWS01_115",2017-11-28 17:54:30,146,101.00,"",115,22599.0,0,"",23,"",0.2720,""
"GSWS01_115",2017-11-29 07:12:30,147,101.00,"",115,22599.0,0,"",24,"",0.2650,""
"GSWS01_115",2017-11-29 20:30:30,148,101.00,"",115,22599.0,0,"",25,"",0.2530,""
"GSWS01_115",2017-11-30 09:48:30,149,101.00,"",115,22599.0,0,"",26,"",0.2360,""
"GSWS01_115",2017-11-30 23:06:30,150,101.00,"",115,22599.0,0,"",27,"",0.2210,""
"GSWS01_115",2017-12-01 12:24:30,151,101.00,"",115,22599.0,0,"",28,"",0.2060,""
"GSWS01_115",2017-12-02 01:42:30,152,101.00,"",115,22599.0,0,"",29,"",0.1940,""
"GSWS01_115",2017-12-02 15:00:30,153,101.00,"",115,22599.0,0,"",30,"",0.1880,""
"GSWS01_115",2017-12-03 04:18:30,154,101.00,"",115,22599.0,0,"",31,"",0.2020,""
"GSWS01_115",2017-12-03 17:36:30,155,101.00,"",115,22599.0,0,"",32,"",0.2040,""
"GSWS01_115",2017-12-04 06:54:30,156,101.00,"",115,22599.0,0,"",33,"",0.1960,""
"GSWS01_115",2017-12-05 04:06:45,0,101.00,"",115,64844.0,0,"",1,"",0.1860,""
"GSWS01_115",2017-12-05 17:24:45,1,101.00,"",115,64844.0,0,"",2,"",0.1790,""
"GSWS01_115",2017-12-06 06:42:45,2,101.00,"",115,64844.0,0,"",3,"",0.1700,""
"GSWS01_115",2017-12-06 20:00:45,3,101.00,"",115,64844.0,0,"",4,"",0.1600,""
"GSWS01_115",2017-12-07 09:18:45,4,101.00,"",115,64844.0,0,"",5,"",0.1510,""
"GSWS01_115",2017-12-07 22:36:45,5,101.00,"",115,64844.0,0,"",6,"",0.1450,""
"GSWS01_115",2017-12-08 11:54:45,6,101.00,"",115,64844.0,0,"",7,"",0.1390,""
"GSWS01_115",2017-12-09 01:12:45,7,101.00,"",115,64844.0,0,"",8,"",0.1320,""
"GSWS01_115",2017-12-09 14:30:45,8,101.00,"",115,64844.0,0,"",9,"",0.1280,""
"GSWS01_115",2017-12-10 03:48:45,9,101.00,"",115,64844.0,0,"",10,"",0.1230,""
"GSWS01_115",2017-12-10 17:06:45,10,101.00,"",115,64844.0,0,"",11,"",0.1200,""
"GSWS01_115",2017-12-11 06:24:45,11,101.00,"",115,64844.0,0,"",12,"",0.1140,""
"GSWS01_115",2017-12-11 19:42:45,12,101.00,"",115,64844.0,0,"",13,"",0.1110,""
"GSWS01_115",2017-12-12 09:00:45,13,101.00,"",115,64844.0,0,"",14,"",0.1090,""
"GSWS01_115",2017-12-12 14:30:45,14,101.00,"",115,64844.0,0,"",15,"",0.1080,""
"GSWS01_115",2017-12-13 08:09:00,0,101.00,"",115,64844.0,0,"",1,"",0.1070,""
"GSWS01_115",2017-12-13 08:09:15,1,101.00,"",115,64844.0,0,"",2,"",0.1070,""
"GSWS01_115",2017-12-15 13:20:30,2,101.00,"",115,64844.0,0,"",3,"",0.0970,""
"GSWS01_115",2017-12-19 23:43:15,3,101.00,"",115,64844.0,0,"",4,"",0.1600,""
"GSWS01_115",2017-12-20 13:01:15,4,101.00,"",115,64844.0,0,"",5,"",0.1580,""
"GSWS01_115",2017-12-21 02:19:15,5,101.00,"",115,64844.0,0,"",6,"",0.1640,""
"GSWS01_115",2017-12-21 15:37:15,6,101.00,"",115,64844.0,0,"",7,"",0.1500,""
"GSWS01_115",2017-12-22 04:55:15,7,101.00,"",115,64844.0,0,"",8,"",0.1390,""
"GSWS01_115",2017-12-22 18:13:15,8,101.00,"",115,64844.0,0,"",9,"",0.1310,""
"GSWS01_115",2017-12-23 07:31:15,9,101.00,"",115,64844.0,0,"",10,"",0.1500,""
"GSWS01_115",2017-12-23 20:49:15,10,101.00,"",115,64844.0,0,"",11,"",0.1830,""
"GSWS01_115",2017-12-24 10:07:15,11,101.00,"",115,64844.0,0,"",12,"",0.1790,""
"GSWS01_115",2017-12-24 23:25:15,12,101.00,"",115,64844.0,0,"",13,"",0.1960,""
"GSWS01_115",2017-12-25 12:43:15,13,101.00,"",115,64844.0,0,"",14,"",0.2440,""
"GSWS01_115",2017-12-26 02:01:15,14,101.00,"",115,64844.0,0,"",15,"",0.2400,""
"GSWS01_115",2017-12-26 15:19:15,15,101.00,"",115,64844.0,0,"",16,"",0.2180,""
"GSWS01_115",2017-12-27 04:37:15,16,101.00,"",115,64844.0,0,"",17,"",0.2020,""
"GSWS01_115",2017-12-27 17:55:15,17,101.00,"",115,64844.0,0,"",18,"",0.1940,""
"GSWS01_115",2017-12-28 07:13:15,18,101.00,"",115,64844.0,0,"",19,"",0.1910,""
"GSWS01_115",2017-12-28 20:31:15,19,101.00,"",115,64844.0,0,"",20,"",0.2410,""
"GSWS01_115",2017-12-29 03:09:15,20,101.00,"",115,64844.0,0,"",21,"",0.3630,""
"GSWS01_115",2017-12-29 09:47:15,21,101.00,"",115,64844.0,0,"",22,"",0.3860,""
"GSWS01_115",2017-12-29 16:25:15,22,101.00,"",115,64844.0,0,"",23,"",0.3670,""
"GSWS01_115",2017-12-29 23:03:15,23,101.00,"",115,64844.0,0,"",24,"",0.4450,""
"GSWS01_115",2017-12-30 05:41:15,24,101.00,"",115,64844.0,0,"",25,"",0.4540,""
"GSWS01_115",2017-12-30 12:19:15,25,101.00,"",115,64844.0,0,"",26,"",0.4190,""
"GSWS01_115",2017-12-30 18:57:15,26,101.00,"",115,64844.0,0,"",27,"",0.3730,""
"GSWS01_115",2017-12-31 08:15:15,27,101.00,"",115,64844.0,0,"",28,"",0.2980,""
"GSWS01_115",2017-12-31 21:33:15,28,101.00,"",115,64844.0,0,"",29,"",0.2490,""
"GSWS01_115",2018-01-01 10:51:15,29,101.00,"",115,64844.0,0,"",30,"",0.2170,""
"GSWS01_115",2018-01-02 00:09:15,30,101.00,"",115,64844.0,0,"",31,"",0.1970,""
"GSWS01_115",2018-01-02 13:27:15,31,101.00,"",115,64844.0,0,"",32,"",0.1830,""
"GSWS01_115",2018-01-03 02:45:15,32,101.00,"",115,64844.0,0,"",1,"",0.1780,""
"GSWS01_115",2018-01-03 22:48:00,0,101.00,"",115,37737.0,0,"",1,"",0.1630,""
"GSWS01_115",2018-01-04 12:06:00,1,101.00,"",115,37737.0,0,"",2,"",0.1560,""
"GSWS01_115",2018-01-05 01:24:00,2,101.00,"",115,37737.0,0,"",3,"",0.1470,""
"GSWS01_115",2018-01-05 14:42:00,3,101.00,"",115,37737.0,0,"",4,"",0.1430,""
"GSWS01_115",2018-01-06 04:00:00,4,101.00,"",115,37737.0,0,"",5,"",0.1370,""
"GSWS01_115",2018-01-06 17:18:00,5,101.00,"",115,37737.0,0,"",6,"",0.1330,""
"GSWS01_115",2018-01-07 06:36:00,6,101.00,"",115,37737.0,0,"",7,"",0.1310,""
"GSWS01_115",2018-01-07 19:54:00,7,101.00,"",115,37737.0,0,"",8,"",0.1290,""
"GSWS01_115",2018-01-08 09:12:00,8,101.00,"",115,37737.0,0,"",9,"",0.1260,""
"GSWS01_115",2018-01-08 22:30:00,9,101.00,"",115,37737.0,0,"",10,"",0.1240,""
"GSWS01_115",2018-01-09 11:48:00,10,101.00,"",115,37737.0,0,"",11,"",0.1370,""
"GSWS01_115",2018-01-10 01:06:00,11,101.00,"",115,37737.0,0,"",12,"",0.1380,""
"GSWS01_115",2018-01-10 14:24:00,12,101.00,"",115,37737.0,0,"",13,"",0.1370,""
"GSWS01_115",2018-01-11 03:42:00,13,101.00,"",115,37737.0,0,"",14,"",0.1700,""
"GSWS01_115",2018-01-11 10:59:45,14,101.00,"",115,37737.0,0,"",15,"",0.3590,""
"GSWS01_115",2018-01-11 17:37:45,15,101.00,"",115,37737.0,0,"",16,"",0.5220,""
"GSWS01_115",2018-01-11 22:03:45,16,101.00,"",115,37737.0,0,"",17,"",0.5590,""
"GSWS01_115",2018-01-12 04:41:45,17,101.00,"",115,37737.0,0,"",18,"",0.5140,""
"GSWS01_115",2018-01-12 11:19:45,18,101.00,"",115,37737.0,0,"",19,"",0.4410,""
"GSWS01_115",2018-01-12 17:57:45,19,101.00,"",115,37737.0,0,"",20,"",0.3840,""
"GSWS01_115",2018-01-13 07:15:45,20,101.00,"",115,37737.0,0,"",21,"",0.3030,""
"GSWS01_115",2018-01-13 20:33:45,21,101.00,"",115,37737.0,0,"",22,"",0.2560,""
"GSWS01_115",2018-01-14 09:51:45,22,101.00,"",115,37737.0,0,"",23,"",0.2250,""
"GSWS01_115",2018-01-14 23:09:45,23,101.00,"",115,37737.0,0,"",24,"",0.2040,""
"GSWS01_115",2018-01-15 12:27:45,24,101.00,"",115,37737.0,0,"",25,"",0.1910,""
"GSWS01_115",2018-01-16 01:45:45,25,101.00,"",115,37737.0,0,"",26,"",0.1800,""
"GSWS01_115",2018-01-16 15:03:45,26,101.00,"",115,37737.0,0,"",27,"",0.1690,""
"GSWS01_115",2018-01-17 04:21:45,27,101.00,"",115,37737.0,0,"",28,"",0.1620,""
"GSWS01_115",2018-01-17 17:39:45,28,101.00,"",115,37737.0,0,"",29,"",0.1560,""
"GSWS01_115",2018-01-18 06:57:45,29,101.00,"",115,37737.0,0,"",30,"",0.2150,""
"GSWS01_115",2018-01-18 20:15:45,30,101.00,"",115,37737.0,0,"",31,"",0.3120,""
"GSWS01_115",2018-01-19 09:33:45,31,101.00,"",115,37737.0,0,"",32,"",0.2930,""
"GSWS01_115",2018-01-19 22:51:45,32,101.00,"",115,37737.0,0,"",33,"",0.2650,""
"GSWS01_115",2018-01-20 12:09:45,33,101.00,"",115,37737.0,0,"",34,"",0.2570,""
"GSWS01_115",2018-01-21 01:27:45,34,101.00,"",115,37737.0,0,"",35,"",0.2490,""
"GSWS01_115",2018-01-21 14:45:45,35,101.00,"",115,37737.0,0,"",36,"",0.2590,""
"GSWS01_115",2018-01-22 04:03:45,36,101.00,"",115,37737.0,0,"",37,"",0.3390,""
"GSWS01_115",2018-01-22 17:21:45,37,101.00,"",115,37737.0,0,"",38,"",0.3370,""
"GSWS01_115",2018-01-23 06:39:45,38,101.00,"",115,37737.0,0,"",39,"",0.3080,""
"GSWS01_115",2018-01-23 19:57:45,39,101.00,"",115,37737.0,0,"",40,"",0.3570,""
"GSWS01_115",2018-01-24 02:35:45,40,101.00,"",115,37737.0,0,"",41,"",0.3920,""
"GSWS01_115",2018-01-24 09:13:45,41,101.00,"",115,37737.0,0,"",42,"",0.4700,""
"GSWS01_115",2018-01-24 15:51:45,42,101.00,"",115,37737.0,0,"",43,"",0.5130,""
"GSWS01_115",2018-01-24 16:31:15,43,101.00,"",115,37737.0,0,"",44,"",0.5150,""
"GSWS01_115",2018-01-24 22:29:45,44,101.00,"",115,37737.0,0,"",1,"",0.4930,""
"GSWS01_115",2018-01-25 05:07:45,45,101.00,"",115,37737.0,0,"",2,"",0.4540,""
"GSWS01_115",2018-01-25 11:45:45,46,101.00,"",115,37737.0,0,"",3,"",0.4200,""
"GSWS01_115",2018-01-25 18:23:45,47,101.00,"",115,37737.0,0,"",4,"",0.3940,""
"GSWS01_115",2018-01-26 01:01:45,48,101.00,"",115,37737.0,0,"",5,"",0.3870,""
"GSWS01_115",2018-01-26 07:39:45,49,101.00,"",115,37737.0,0,"",6,"",0.3770,""
"GSWS01_115",2018-01-26 14:17:45,50,101.00,"",115,37737.0,0,"",7,"",0.3600,""
"GSWS01_115",2018-01-27 03:35:45,51,101.00,"",115,37737.0,0,"",8,"",0.3440,""
"GSWS01_115",2018-01-27 10:13:45,52,101.00,"",115,37737.0,0,"",9,"",0.4580,""
"GSWS01_115",2018-01-27 14:39:45,53,101.00,"",115,37737.0,0,"",10,"",0.5870,""
"GSWS01_115",2018-01-27 19:05:45,54,101.00,"",115,37737.0,0,"",11,"",0.6900,""
"GSWS01_115",2018-01-27 23:31:45,55,101.00,"",115,37737.0,0,"",12,"",0.6780,""
"GSWS01_115",2018-01-28 03:57:45,56,101.00,"",115,37737.0,0,"",13,"",0.6520,""
"GSWS01_115",2018-01-28 08:23:45,57,101.00,"",115,37737.0,0,"",14,"",0.6200,""
"GSWS01_115",2018-01-28 12:49:45,58,101.00,"",115,37737.0,0,"",15,"",0.5680,""
"GSWS01_115",2018-01-28 19:27:45,59,101.00,"",115,37737.0,0,"",16,"",0.5010,""
"GSWS01_115",2018-01-29 02:05:45,60,101.00,"",115,37737.0,0,"",17,"",0.4440,""
"GSWS01_115",2018-01-29 08:43:45,61,101.00,"",115,37737.0,0,"",18,"",0.4000,""
"GSWS01_115",2018-01-29 15:21:45,62,101.00,"",115,37737.0,0,"",19,"",0.3670,""
"GSWS01_115",2018-01-30 04:39:45,63,101.00,"",115,37737.0,0,"",20,"",0.3380,""
"GSWS01_115",2018-01-30 17:57:45,64,101.00,"",115,37737.0,0,"",21,"",0.3130,""
"GSWS01_115",2018-01-31 07:15:45,65,101.00,"",115,37737.0,0,"",22,"",0.2900,""
"GSWS01_115",2018-01-31 20:33:45,66,101.00,"",115,37737.0,0,"",23,"",0.2680,""
"GSWS01_115",2018-02-01 09:51:45,67,101.00,"",115,37737.0,0,"",24,"",0.2460,""
"GSWS01_115",2018-02-01 23:09:45,68,101.00,"",115,37737.0,0,"",25,"",0.2300,""
"GSWS01_115",2018-02-02 12:27:45,69,101.00,"",115,37737.0,0,"",26,"",0.2170,""
"GSWS01_115",2018-02-03 01:45:45,70,101.00,"",115,37737.0,0,"",27,"",0.2060,""
"GSWS01_115",2018-02-03 15:03:45,71,101.00,"",115,37737.0,0,"",28,"",0.2010,""
"GSWS01_115",2018-02-04 04:21:45,72,101.00,"",115,37737.0,0,"",29,"",0.1940,""
"GSWS01_115",2018-02-04 17:39:45,73,101.00,"",115,37737.0,0,"",30,"",0.1890,""
"GSWS01_115",2018-02-05 06:57:45,74,101.00,"",115,37737.0,0,"",31,"",0.1800,""
"GSWS01_115",2018-02-05 20:15:45,75,101.00,"",115,37737.0,0,"",32,"",0.1720,""
"GSWS01_115",2018-02-06 09:33:45,76,101.00,"",115,37737.0,0,"",33,"",0.1650,""
"GSWS01_115",2018-02-06 22:51:45,77,101.00,"",115,37737.0,0,"",34,"",0.1570,""
"GSWS01_115",2018-02-07 12:09:45,78,101.00,"",115,37737.0,0,"",35,"",0.1510,""
"GSWS01_115",2018-02-08 01:27:45,79,101.00,"",115,37737.0,0,"",36,"",0.1460,""
"GSWS01_115",2018-02-08 14:45:45,80,101.00,"",115,37737.0,0,"",37,"",0.1410,""
"GSWS01_115",2018-02-09 04:03:45,81,101.00,"",115,37737.0,0,"",38,"",0.1360,""
"GSWS01_115",2018-02-10 06:40:00,82,101.00,"",115,37737.0,0,"",39,"",0.1270,""
"GSWS01_115",2018-02-10 19:58:00,83,101.00,"",115,37737.0,0,"",40,"",0.1250,""
"GSWS01_115",2018-02-11 09:16:00,84,101.00,"",115,37737.0,0,"",41,"",0.1230,""
"GSWS01_115",2018-02-13 15:27:30,85,101.00,"",115,37737.0,0,"",42,"",0.1110,""
"GSWS01_115",2018-02-13 15:30:45,86,101.00,"",115,37737.0,0,"",43,"",0.1110,""
"GSWS01_115",2018-02-14 03:45:45,87,101.00,"",115,37737.0,0,"",1,"",0.1110,""
"GSWS01_115",2018-02-14 17:03:45,88,101.00,"",115,37737.0,0,"",2,"",0.1200,""
"GSWS01_115",2018-02-15 06:21:45,89,101.00,"",115,37737.0,0,"",3,"",0.1210,""
"GSWS01_115",2018-02-15 19:39:45,90,101.00,"",115,37737.0,0,"",4,"",0.1190,""
"GSWS01_115",2018-02-16 08:57:45,91,101.00,"",115,37737.0,0,"",5,"",0.1170,""
"GSWS01_115",2018-02-16 22:15:45,92,101.00,"",115,37737.0,0,"",6,"",0.1430,""
"GSWS01_115",2018-02-17 11:33:45,93,101.00,"",115,37737.0,0,"",7,"",0.1870,""
"GSWS01_115",2018-02-18 00:51:45,94,101.00,"",115,37737.0,0,"",8,"",0.3030,""
"GSWS01_115",2018-02-18 14:09:45,95,101.00,"",115,37737.0,0,"",9,"",0.3200,""
"GSWS01_115",2018-02-19 03:27:45,96,101.00,"",115,37737.0,0,"",10,"",0.2710,""
"GSWS01_115",2018-02-19 16:45:45,97,101.00,"",115,37737.0,0,"",11,"",0.2300,""
"GSWS01_115",2018-02-20 06:03:45,98,101.00,"",115,37737.0,0,"",12,"",0.2060,""
"GSWS01_115",2018-02-20 19:21:45,99,101.00,"",115,37737.0,0,"",13,"",0.1920,""
"GSWS01_115",2018-02-21 08:39:45,100,101.00,"",115,37737.0,0,"",14,"",0.1810,""
"GSWS01_115",2018-02-21 21:57:45,101,101.00,"",115,37737.0,0,"",15,"",0.1720,""
"GSWS01_115",2018-02-22 11:15:45,102,101.00,"",115,37737.0,0,"",16,"",0.1660,""
"GSWS01_115",2018-02-23 00:33:45,103,101.00,"",115,37737.0,0,"",17,"",0.1550,""
"GSWS01_115",2018-02-23 13:53:15,104,101.00,"",115,37737.0,0,"",18,"",0.1480,""